AirNav   Bose ProFlight Aviation Headset
 
 382 users online  

M95 Richard Arthur Field Airport
Fayette, Alabama, USA

GOING TO FAYETTE?


FAA INFORMATION EFFECTIVE 19 JULY 2018

Location

FAA Identifier: M95
Lat/Long: 33-42-32.7789N / 087-48-54.7521W
33-42.546315N / 087-48.912535W
33.7091053 / -87.8152089
(estimated)
Elevation: 357.1 ft. / 108.8 m (surveyed)
Variation: 03W (2020)
From city: 3 miles NE of FAYETTE, AL
Time zone: UTC -5 (UTC -6 during Standard Time)
Zip code: 35555

Airport Operations

Airport use: Open to the public
Activation date: 10/1946
Control tower: no
ARTCC: MEMPHIS CENTER
FSS: ANNISTON FLIGHT SERVICE STATION
NOTAMs facility: ANB (NOTAM-D service available)
Attendance: MON-FRI 0800-1200
Wind indicator: lighted
Segmented circle: yes
Lights: ACTVT PAPI RWY 01 & 19; MIRL RWY 01/19 AND TWY LGTS - CTAF.
Beacon: white-green (lighted land airport)
Operates sunset to sunrise.

Airport Communications

CTAF/UNICOM: 122.8
COLUMBUS APPROACH: 126.075
COLUMBUS DEPARTURE: 126.075
  • APCH/DEP SERVICE PRVDD BY MEMPHIS ARTCC ON FREQS 127.1/269.4 (COLUMBUS RCAG) WHEN COLUMBUS APCH CTL CLSD.

Nearby radio navigation aids

VOR radial/distance  VOR name  Freq  Var
LDKr330/30.4CRIMSON VORTAC117.8003E
HABr160/31.0HAMILTON VORTAC110.4002E
CBMr083/31.4CALEDONIA VORTAC115.2000E
IGBr065/37.4BIGBEE VORTAC116.2004E

Airport Services

Fuel available: 100LL JET-A
Parking: tiedowns
Bottled oxygen: NONE
Bulk oxygen: NONE

Runway Information

Runway 1/19

Dimensions: 5008 x 80 ft. / 1526 x 24 m
Surface: asphalt, in fair condition
Weight bearing capacity: 
Single wheel: 15.0
Runway edge lights: medium intensity
RUNWAY 1  RUNWAY 19
Latitude: 33-42.133863N33-42.958767N
Longitude: 087-48.934920W087-48.890135W
Elevation: 330.6 ft.357.1 ft.
Gradient: 0.7%0.7%
Traffic pattern: leftleft
Runway heading: 006 magnetic, 003 true186 magnetic, 183 true
Markings: nonprecision, in fair conditionnonprecision, in fair condition
Visual slope indicator: 2-light PAPI on left (3.00 degrees glide path)2-light PAPI on left (3.00 degrees glide path)
Touchdown point: yes, no lightsyes, no lights
Obstructions: 29 ft. trees, 1210 ft. from runway, 184 ft. right of centerline, 34:1 slope to clear83 ft. trees, 1299 ft. from runway, 178 ft. left of centerline, 13:1 slope to clear

Airport Ownership and Management from official FAA records

Ownership: Publicly-owned
Owner: CITY OF FAYETTE
203 TEMPLE AVE NORTH
FAYETTE, AL 35555
Phone 205-932-5367
Manager: JIM HAYRES
100 21ST STREET NORTH EAST
FAYETTE, AL 35555
Phone 205-932-3819

Airport Operational Statistics

Aircraft based on the field: 10
Single engine airplanes: 10
    
Aircraft operations: avg 42/day *
85% transient general aviation
15% local general aviation
* for 12-month period ending 24 February 2017

Additional Remarks

TWY LGTS FOR TWY TURNOFF ONLY.
DEER ON & INVOF ARPT.

Instrument Procedures

NOTE: All procedures below are presented as PDF files. If you need a reader for these files, you should download the free Adobe Reader.

NOT FOR NAVIGATION. Please procure official charts for flight.
FAA instrument procedures published for use from 19 July 2018 at 0901Z to 16 August 2018 at 0900Z.

 
IAPs - Instrument Approach Procedures
RNAV (GPS) RWY 01 **NEW**   download (208KB)
RNAV (GPS) RWY 19 **NEW**   download (197KB)
NOTE: Special Take-Off Minimums/Departure Procedures apply **CHANGED**   download (329KB)

Other nearby airports with instrument procedures:

M55 - Lamar County Airport (17 nm NW)
3M8 - North Pickens Airport (22 nm SW)
KHAB - Marion County-Rankin Fite Airport (26 nm N)
KJFX - Walker County Airport-Bevill Field (28 nm NE)
KTCL - Tuscaloosa Regional Airport (31 nm S)
 
Loc | Ops | Rwys | IFR | FBO | Links
Com | Nav | Svcs | Stats | Notes


 
Area around M95 (Richard Arthur Field Airport)
 
Road maps at: MapQuest Bing Google
 
Aerial photo
WARNING: Photo may not be current or correct
Aerial photo of M95 (Richard Arthur Field Airport)
Taken late October 2007

Do you have a better or more recent aerial photo of Richard Arthur Field Airport that you would like to share? If so, please send us your photo.

 
Sectional chart

 
Airport distance calculator
Flying to Richard Arthur Field Airport? Find the distance to fly.

From to M95

Sunrise and sunset
Times for 15-Aug-2018
 Local
(UTC-5)
 Zulu
(UTC)
Morning civil twilight05:4810:48
Sunrise06:1411:14
Sunset19:3700:37
Evening civil twilight20:0401:04

Current date and time
Zulu (UTC)  15-Aug-2018 07:15:12
Local (UTC-5)  15-Aug-2018 02:15:12
 
METAR
KJFX 
28nm NE 
150655Z AUTO 00000KT 5SM BR 22/22 A3005 RMK AO2 PWINO
KTCL 
31nm S 
150653Z AUTO 00000KT 8SM CLR 24/22 A3004 RMK AO2 SLP170 T02390222
KCBM 
32nm W 
150656Z AUTO 00000KT 10SM BKN200 23/22 A3002 RMK AO2 SLP166 T02310219 $
KM40 
35nm W 
150655Z AUTO 00000KT 10SM CLR 23/23 A3004 RMK AO2
K1M4 
36nm N 
150656Z AUTO 00000KT 10SM CLR 22/21 A3008 RMK AO2 SLP190 T02170206
KGTR 
41nm W 
150656Z AUTO 00000KT 10SM CLR 23/23 A3003 RMK AO2 SLP169 T02330228 PNO $
TAF
KTCL 
31nm S 
150520Z 1506/1606 17003KT P6SM SCT250 FM151600 19005KT P6SM FEW060 FEW250
KCBM 
32nm W 
142346Z 1423/1523 01009KT 9999 VCSH FEW070 SCT180 QNH2994INS TEMPO 1423/1501 4800 -TSRA BKN050CB BECMG 1500/1501 VRB06KT 9999 NSW FEW070 SCT180 QNH2995INS BECMG 1511/1512 18006KT 9999 FEW160 SCT200 QNH2996INS TX33/1521Z TN20/1512Z LAST NO AMDS AFT 1500 NEXT 1509
NOTAMs
Click for the latest NOTAMs
NOTAMs are issued by the DoD/FAA and will open in a separate window not controlled by AirNav.

 

 
 

Would you like to see your business listed on this page?

 If your business provides an interesting product or service to pilots, flight crews, aircraft, or users of the Richard Arthur Field Airport, you should consider listing it here.  To start the listing process, click on the button below
 
Add a business
 

Other Pages about Richard Arthur Field Airport

Update a link
 
Copyright © AirNav, LLC. All rights reserved. Privacy Policy  Contact